Temperature
29 29 29 29 29 29 29 29 29 29 29 29 28 27 26 25 24 23 22 21 20 20 19 18 18 18 18 18 18 17 17 16 16 16 16 16 15 15 15 15 15 15 15 15
28 29 29 28 28 29 28 28 29 29 28 28 27 26 25 24 24 23 22 21 20 19 19 18 18 17 17 17 17 17 17 16 16 16 16 16 15 15 15 15 15 15 14 14
27 28 28 27 28 28 28 28 28 28 28 28 27 26 25 24 23 23 22 21 20 19 19 18 18 18 17 17 17 17 16 16 16 16 16 16 15 15 15 15 15 15 14 14
27 26 25 27 28 28 28 28 28 28 27 27 26 25 24 23 23 22 22 21 20 19 19 18 18 18 17 17 17 16 16 16 16 16 15 15 15 15 15 15 15 15 14 14
26 26 26 27 27 27 27 26 27 27 26 25 24 24 24 22 22 21 20 20 19 19 19 18 18 17 17 17 16 16 16 16 16 15 15 15 15 15 15 14 14 14 14 14
25 25 25 26 27 26 26 26 26 25 25 24 24 25 25 21 21 20 20 19 19 19 18 18 17 17 17 17 16 16 16 16 15 15 15 15 15 14 14 14 14 14 14 14
25 25 26 26 25 25 25 25 24 24 23 23 23 23 22 20 20 19 19 19 18 18 18 17 17 17 16 16 16 16 16 15 15 15 15 14 14 14 14 14 14 14 13 13
24 24 24 24 24 24 24 23 23 22 22 22 21 20 20 19 19 19 18 18 18 18 17 17 17 17 16 16 16 16 15 15 15 15 14 14 14 14 14 13 13 14 13 13
24 24 23 22 23 22 22 22 22 21 21 20 20 20 19 19 18 18 18 17 17 17 17 17 17 16 16 16 15 15 15 15 15 14 14 14 14 14 13 13 13 14 14 14
22 23 23 22 21 21 21 21 20 20 20 20 20 19 18 18 18 17 17 17 17 16 16 16 16 16 16 15 15 15 15 15 14 14 14 14 13 13 13 13 13 13 13 13
21 22 21 21 20 20 20 19 19 19 19 19 19 18 18 18 17 17 17 16 16 16 16 16 16 16 16 15 15 14 14 14 14 14 14 13 13 13 13 13 13 13 13 13
21 21 21 21 19 19 19 19 19 18 18 18 18 18 17 17 17 16 16 16 16 16 16 15 15 15 15 15 15 14 14 14 14 14 13 13 13 13 13 13 13 13 13 13
19 19 19 19 19 18 18 18 18 18 17 17 17 17 17 16 16 16 15 15 15 15 15 15 15 15 15 14 14 14 13 13 13 13 13 13 13 13 13 13 13 13 12 12
17 17 18 18 18 18 18 17 17 17 17 17 16 16 16 16 16 15 15 15 15 15 14 14 14 14 14 14 14 13 13 13 13 13 13 13 13 13 13 13 13 12 12 12
17 17 17 17 17 17 17 17 17 17 17 16 16 15 15 15 15 15 15 15 14 14 14 14 14 14 14 13 13 13 13 13 13 12 12 12 12 12 12 12 12 12 12 12
17 17 17 17 16 16 16 16 16 16 16 16 15 15 15 15 15 15 14 14 14 14 14 14 14 14 13 13 12 12 12 12 12 12 12 12 12 12 12 12 12 12 12 12
16 16 16 16 16 16 16 16 16 15 15 15 15 15 14 14 14 14 14 14 14 13 13 13 13 13 13 12 12 12 12 12 12 12 12 12 12 12 12 12 12 12 12 12
15 16 16 16 15 15 15 15 15 15 14 14 14 14 14 14 14 14 13 13 13 13 13 13 13 12 12 12 12 12 12 12 12 12 12 12 11 12 11 12 12 12 12 12
15 15 15 15 15 15 14 14 14 14 14 14 13 14 14 13 13 13 13 13 13 13 12 12 12 12 12 12 12 12 12 12 12 12 11 11 11 11 12 12 12 11 11 11
14 14 14 14 14 14 14 14 14 13 13 13 13 13 13 13 13 13 13 13 13 13 12 12 12 12 11 11 11 11 12 12 12 11 11 11 11 11 11 11 11 11 11 11
13 13 13 13 13 13 13 13 13 13 13 13 13 13 13 13 13 13 13 13 13 12 12 12 12 12 12 11 11 11 11 11 11 11 11 11 11 11 11 11 11 11 11 11
13 13 13 13 13 13 13 13 13 12 12 12 12 12 12 13 13 13 13 13 13 12 12 12 12 12 12 12 11 12 12 12 12 12 11 11 11 11 11 11 11 11 11 10
12 12 12 12 12 12 12 12 12 12 12 12 12 12 12 12 12 12 12 12 12 12 12 12 12 12 12 11 11 11 11 11 12 12 11 11 11 11 11 11 11 11 11 10
12 12 12 12 12 12 12 12 12 12 11 11 12 12 12 12 12 12 12 12 12 12 12 12 12 12 12 11 11 11 11 11 11 11 11 11 11 11 11 11 11 10 10 10
11 11 11 11 11 11 11 11 11 11 11 11 11 11 12 12 12 12 12 12 12 12 12 12 11 11 11 11 11 11 11 11 11 11 11 11 11 11 11 10 10 10 10 10
11 11 11 11 11 11 11 11 11 11 11 11 11 11 11 11 11 11 11 11 11 11 11 11 11 11 11 11 11 11 11 11 11 11 11 11 10 10 10 10 10 10 10 9
11 11 11 11 11 11 11 11 11 11 11 11 11 11 11 11 11 11 11 11 11 11 11 11 11 11 11 11 11 10 10 10 10 10 10 10 10 10 10 9 9 9 9 9
Wind_Speed
10 7 7 8 9 10 11 12 13 10 8 5 3 4 3 2 3 3 3 3 4 4 4 5 5 5 5 5 5 5 5 5 5 5 5 4 4 5 4 5 5 5 5 5
11 9 9 9 10 11 12 12 12 11 9 3 2 2 3 3 4 4 4 4 4 4 5 5 5 5 5 5 5 5 5 5 4 4 4 4 4 4 4 4 4 5 5 5
12 10 11 14 12 11 11 11 12 12 8 4 4 4 4 4 4 4 4 4 4 5 5 5 5 5 5 5 5 5 5 5 4 4 4 4 4 4 4 4 4 5 5 6
10 10 15 8 3 7 9 9 9 8 5 5 4 4 4 4 4 3 3 3 3 4 4 5 5 5 5 5 5 5 5 5 5 5 5 5 5 5 5 5 5 5 5 6
10 14 13 9 6 6 9 9 7 6 5 4 3 4 4 1 1 2 2 2 3 3 4 4 4 5 5 5 5 5 6 6 6 5 6 5 5 5 5 5 5 5 5 6
11 13 14 6 3 5 8 10 4 4 4 4 4 7 3 0 2 2 2 2 2 3 3 4 4 4 5 6 6 6 6 6 6 6 6 6 6 5 5 5 5 5 5 5
13 13 9 2 2 5 9 4 1 2 3 4 4 5 2 2 2 2 2 2 2 2 3 3 4 5 5 6 6 6 6 6 6 7 7 6 6 5 5 6 5 5 5 5
11 13 10 1 3 5 3 1 1 1 2 3 2 2 1 1 2 2 2 2 2 2 2 3 4 5 6 6 5 5 6 6 7 7 7 6 6 6 6 6 6 6 5 5
8 6 1 1 1 1 2 1 1 1 1 2 2 2 2 2 2 2 2 2 3 3 3 3 4 5 6 5 5 6 6 7 7 7 6 6 7 7 6 6 6 5 5 4
7 6 4 3 2 2 1 2 2 2 2 2 2 2 3 3 3 3 2 3 3 3 4 4 4 5 5 5 5 6 7 7 7 7 7 6 6 6 6 6 5 5 5 5
9 8 6 5 4 3 3 3 3 3 3 4 3 4 4 4 4 4 4 4 4 4 5 5 4 4 5 5 6 7 7 7 7 7 6 6 6 5 6 5 4 5 5 5
8 6 7 6 5 5 5 4 4 4 5 4 4 4 4 4 4 5 5 5 5 5 5 5 5 4 4 5 6 7 7 7 6 6 5 5 5 5 3 4 3 4 5 6
8 8 8 7 6 6 6 6 6 6 6 5 5 4 4 4 4 5 5 5 6 6 5 5 5 5 5 5 6 7 7 6 5 5 5 6 6 5 4 4 5 7 7 7
7 7 8 7 6 5 5 5 6 5 5 5 4 4 4 4 4 4 5 5 6 6 5 5 5 5 4 5 6 7 7 6 6 5 5 5 5 5 5 5 4 4 6 9
7 7 8 6 5 5 5 5 5 5 5 4 4 4 4 4 4 5 5 5 5 5 5 4 4 4 4 5 6 6 6 5 5 5 5 4 5 5 5 5 5 5 4 4
7 7 7 6 6 5 5 5 5 5 5 5 5 4 4 4 4 4 4 4 5 5 5 4 4 3 4 5 6 6 5 4 4 4 4 4 4 4 4 4 5 4 4 4
7 7 7 6 6 6 6 5 5 5 5 5 5 4 4 4 4 4 4 5 5 4 4 4 3 3 4 5 5 5 5 5 6 5 4 4 3 3 3 3 4 4 3 2
7 7 7 7 7 7 7 6 6 6 6 5 4 4 4 5 5 4 4 4 3 3 3 3 2 2 4 4 4 4 3 3 4 4 4 4 3 4 4 4 4 4 3 3
7 7 7 7 7 6 6 7 7 6 5 5 5 5 5 4 4 4 3 3 4 4 3 2 2 3 3 3 3 3 3 4 3 3 3 4 4 4 4 4 4 3 3 3
7 7 7 7 7 6 6 7 6 5 5 5 4 4 4 4 3 3 3 3 3 2 2 2 3 3 3 3 3 4 3 4 4 3 3 3 4 4 4 4 4 3 3 3
6 6 6 6 6 6 6 6 5 5 5 4 4 4 4 3 3 3 3 3 2 1 1 2 3 3 3 2 4 4 3 3 4 4 3 3 3 3 3 4 4 4 3 3
4 4 5 5 4 4 4 4 4 4 4 3 4 3 3 3 3 3 2 2 1 1 1 2 2 1 0 2 3 3 3 3 3 3 3 3 3 3 3 3 3 3 3 3
2 3 4 4 4 3 3 3 3 3 3 3 3 3 3 2 2 2 1 0 0 1 1 1 1 2 1 2 3 3 3 3 3 3 3 3 3 3 3 3 3 3 3 3
2 2 2 2 2 3 3 2 2 2 2 2 2 2 2 2 1 1 0 2 1 1 1 1 2 2 3 3 3 3 3 3 3 3 2 2 2 2 2 3 2 2 3 3
2 2 1 1 2 2 1 1 1 1 2 1 1 1 1 1 1 0 1 1 2 1 0 2 2 2 2 2 2 2 2 2 2 2 2 2 2 2 2 2 2 2 3 3
1 0 1 1 0 0 1 1 1 2 2 1 2 2 2 1 1 1 1 1 2 1 1 1 1 1 1 1 1 1 1 1 2 2 2 2 2 2 2 2 2 2 2 2
1 2 1 1 1 1 1 1 2 2 1 1 2 2 2 2 1 1 1 1 1 1 1 1 1 1 1 1 1 1 1 1 1 2 2 2 2 2 2 2 2 2 2 2
Wind_Direction
258 267 258 252 249 240 244 261 270 274 267 268 241 227 218 208 190 185 185 186 183 185 181 187 192 194 193 193 192 197 196 202 205 212 217 221 225 229 231 236 239 235 239 242
246 244 245 255 253 249 249 254 260 263 261 256 241 208 211 212 209 204 199 198 197 196 191 193 196 197 196 198 194 193 198 205 201 205 211 217 222 225 228 231 237 231 235 243
246 241 247 249 250 250 249 250 254 258 257 223 225 225 231 232 219 219 220 214 206 202 201 200 200 196 198 201 199 199 202 204 204 206 212 218 219 216 219 223 230 229 235 242
251 241 247 256 241 251 257 256 254 259 252 247 250 250 255 242 223 225 233 225 216 212 206 204 200 196 201 198 201 204 205 206 210 211 213 215 217 218 221 223 231 236 241 246
250 247 248 241 230 240 247 254 256 252 248 248 246 238 234 217 237 249 256 252 232 224 214 206 202 199 202 208 210 214 215 216 216 216 218 216 219 222 226 233 241 245 243 248
244 254 256 247 220 245 252 244 235 253 249 247 245 249 239 281 296 287 274 260 240 224 212 204 203 206 213 221 220 223 224 224 222 218 221 222 223 226 228 232 239 246 243 247
243 250 254 273 219 223 239 257 12 263 252 247 257 304 327 302 306 293 273 255 230 217 215 211 204 207 220 230 234 234 230 228 226 222 223 223 222 226 229 232 235 242 250 253
241 248 249 158 197 233 283 14 319 274 255 257 287 333 334 327 320 310 291 273 242 220 221 219 213 215 227 234 238 239 235 230 228 227 229 220 217 224 229 231 231 231 236 247
247 248 286 150 239 312 335 322 311 275 257 248 270 302 319 326 324 319 306 278 255 241 231 231 231 231 237 240 236 234 235 232 228 228 230 224 222 224 227 226 234 237 239 246
250 244 246 238 246 250 294 298 300 302 283 254 259 273 286 298 303 303 296 286 268 257 250 248 244 240 240 239 237 236 235 231 226 226 225 222 226 226 232 235 234 238 244 251
248 251 257 234 242 255 277 280 282 286 275 266 271 268 272 281 286 286 285 279 264 256 256 257 249 244 243 236 234 237 237 232 230 228 225 222 226 235 236 240 247 246 247 251
256 257 256 254 252 260 261 263 272 277 276 270 265 267 273 275 276 278 278 276 268 263 262 262 257 247 242 235 233 237 237 234 231 227 222 225 224 232 226 233 215 231 247 254
272 281 281 269 257 259 263 267 269 265 260 258 259 260 266 272 278 275 268 266 264 262 260 260 256 247 241 240 241 241 243 240 235 228 224 227 229 231 233 222 208 219 226 228
270 270 266 256 255 264 270 270 270 266 260 255 253 253 257 264 271 268 265 263 264 265 260 257 255 249 241 239 241 243 242 232 231 229 229 229 232 237 239 242 239 233 220 212
264 257 259 258 258 262 263 263 261 260 258 249 243 243 250 257 264 271 272 266 261 261 256 253 254 255 246 236 238 240 238 234 231 235 233 236 239 240 240 240 243 241 239 210
261 259 255 248 250 254 255 256 259 260 254 248 246 248 255 261 266 271 271 258 249 253 254 254 256 259 249 242 238 237 236 233 233 237 236 233 235 239 241 243 243 234 231 235
255 253 251 251 254 257 259 261 261 255 251 250 248 247 253 258 261 268 268 259 253 257 256 253 259 251 233 233 238 238 233 218 210 226 229 230 232 236 239 240 244 239 233 221
258 257 263 262 259 260 259 262 260 254 249 252 252 243 248 254 255 262 264 259 256 251 255 249 246 249 236 231 236 240 232 227 223 219 215 220 227 226 229 231 231 236 236 201
255 255 260 263 261 255 255 256 254 251 250 247 245 243 248 253 258 260 260 250 244 244 248 244 209 227 228 227 233 231 233 229 228 228 224 210 222 230 227 227 229 230 231 232
255 254 256 258 259 253 251 250 247 245 247 244 241 243 250 253 252 251 249 251 256 262 247 227 219 224 223 222 237 236 231 235 238 234 230 228 224 227 228 225 226 225 228 232
259 255 252 253 255 254 251 246 241 244 251 242 230 235 241 244 244 239 233 244 262 275 237 199 216 217 219 221 230 239 232 235 242 242 240 235 229 228 230 230 235 240 240 240
264 260 255 255 255 259 257 247 240 242 245 233 232 234 231 237 244 242 241 259 229 179 198 188 197 153 245 236 230 241 241 242 243 247 248 247 242 243 244 239 238 242 245 245
277 265 258 252 247 249 250 246 239 235 231 226 222 218 221 238 235 225 227 309 179 133 173 147 99 105 179 227 241 248 248 249 251 253 256 256 252 248 247 245 243 236 240 239
285 272 255 245 232 230 235 236 221 218 209 201 202 207 213 211 219 224 81 107 92 124 159 100 125 177 211 219 239 250 250 249 253 259 260 258 259 259 259 253 249 244 242 239
289 274 242 206 206 219 207 184 186 163 167 161 160 168 189 161 173 114 84 96 97 129 94 102 137 193 220 249 259 260 260 267 271 268 260 259 264 266 263 261 260 252 250 248
302 133 104 126 134 221 193 191 162 129 124 111 98 81 70 73 87 129 126 124 103 77 15 52 97 169 236 291 302 291 277 255 250 252 260 263 264 263 259 259 261 258 257 258
79 97 106 106 101 107 121 111 98 88 81 89 79 65 59 56 47 57 69 74 71 57 22 20 26 24 360 338 324 310 295 285 281 290 293 293 289 280 266 260 257 258 262 262
Height
1466 1464 1465 1468 1470 1470 1473 1472 1474 1470 1471 1471 1473 1476 1480 1483 1485 1487 1489 1490 1491 1492 1493 1494 1495 1496 1497 1498 1499 1500 1500 1501 1501 1502 1503 1503 1504 1504 1505 1505 1506 1506 1506 1506
1471 1466 1467 1470 1468 1468 1470 1469 1469 1469 1470 1469 1474 1477 1480 1482 1483 1485 1487 1488 1489 1490 1491 1492 1492 1493 1494 1495 1496 1497 1497 1498 1499 1499 1500 1500 1501 1501 1502 1502 1502 1503 1503 1503
1472 1467 1469 1473 1466 1466 1467 1465 1467 1468 1468 1469 1473 1476 1478 1480 1481 1483 1484 1486 1487 1488 1488 1489 1490 1491 1491 1492 1493 1494 1495 1496 1496 1496 1497 1498 1498 1498 1498 1498 1499 1499 1499 1499
1470 1474 1484 1466 1461 1462 1464 1464 1464 1465 1467 1470 1473 1476 1478 1479 1480 1481 1483 1484 1485 1486 1486 1487 1488 1489 1489 1490 1490 1491 1492 1493 1493 1493 1494 1495 1495 1495 1495 1495 1495 1495 1495 1495
1471 1472 1469 1463 1462 1463 1465 1466 1465 1466 1468 1471 1473 1475 1475 1478 1479 1480 1481 1482 1483 1483 1484 1485 1485 1486 1487 1487 1488 1488 1489 1489 1490 1490 1491 1491 1491 1491 1491 1491 1491 1491 1492 1492
1471 1475 1473 1462 1460 1463 1465 1467 1465 1467 1469 1471 1472 1470 1471 1476 1478 1479 1479 1480 1480 1481 1482 1482 1483 1483 1484 1485 1485 1486 1486 1486 1487 1487 1487 1487 1487 1487 1488 1488 1488 1488 1488 1488
1469 1470 1462 1459 1461 1464 1470 1468 1466 1468 1470 1471 1472 1473 1474 1475 1476 1477 1477 1477 1478 1478 1479 1480 1480 1481 1481 1482 1482 1483 1483 1483 1483 1483 1483 1484 1484 1484 1484 1484 1484 1485 1485 1485
1466 1469 1467 1461 1462 1464 1466 1467 1468 1469 1470 1472 1473 1474 1474 1474 1474 1475 1475 1475 1476 1476 1476 1477 1477 1478 1478 1478 1479 1479 1479 1480 1480 1480 1480 1481 1480 1480 1481 1481 1481 1481 1481 1481
1459 1462 1463 1464 1464 1466 1467 1468 1469 1469 1470 1471 1472 1472 1473 1473 1473 1473 1473 1473 1473 1474 1474 1474 1474 1475 1475 1475 1475 1475 1475 1475 1475 1475 1476 1476 1476 1477 1477 1477 1478 1478 1478 1478
1461 1459 1462 1464 1465 1467 1468 1469 1469 1469 1470 1470 1470 1471 1471 1471 1471 1471 1471 1471 1471 1471 1471 1471 1471 1471 1471 1471 1471 1471 1471 1471 1471 1471 1471 1472 1472 1472 1474 1474 1474 1474 1475 1475
1462 1462 1463 1464 1465 1466 1467 1468 1468 1468 1468 1469 1468 1468 1469 1469 1469 1469 1468 1468 1468 1468 1468 1468 1468 1467 1467 1467 1467 1467 1467 1467 1467 1467 1468 1468 1468 1468 1469 1469 1470 1471 1471 1472
1459 1461 1462 1462 1464 1465 1466 1466 1466 1466 1466 1467 1467 1466 1466 1466 1466 1466 1465 1465 1465 1465 1465 1464 1464 1463 1463 1463 1463 1463 1462 1462 1463 1464 1464 1464 1464 1465 1464 1465 1465 1466 1466 1467
1461 1461 1461 1461 1462 1463 1463 1463 1464 1464 1464 1464 1464 1464 1463 1463 1462 1462 1462 1461 1461 1461 1460 1460 1460 1460 1459 1460 1459 1459 1459 1458 1459 1459 1460 1460 1461 1461 1461 1461 1460 1461 1462 1463
1460 1461 1459 1459 1460 1460 1461 1461 1461 1461 1461 1461 1461 1460 1460 1459 1459 1458 1458 1457 1457 1457 1456 1456 1456 1456 1455 1456 1455 1455 1455 1455 1455 1455 1456 1456 1457 1457 1457 1457 1457 1458 1458 1458
1457 1457 1457 1457 1457 1457 1458 1458 1458 1457 1457 1457 1457 1457 1456 1456 1455 1455 1454 1454 1454 1453 1453 1452 1452 1452 1452 1452 1451 1451 1452 1452 1452 1452 1452 1453 1454 1454 1454 1454 1455 1455 1455 1455
1454 1454 1454 1454 1454 1454 1455 1455 1455 1454 1454 1454 1454 1454 1453 1453 1453 1452 1451 1451 1450 1450 1449 1448 1448 1448 1448 1448 1448 1448 1448 1448 1448 1449 1449 1450 1450 1450 1450 1451 1451 1452 1452 1452
1451 1451 1451 1451 1451 1452 1452 1452 1452 1452 1451 1451 1451 1450 1450 1450 1449 1449 1448 1448 1447 1447 1446 1446 1445 1445 1444 1445 1445 1445 1445 1445 1445 1445 1446 1446 1447 1447 1447 1448 1448 1448 1449 1448
1448 1448 1449 1448 1449 1449 1449 1449 1449 1449 1448 1448 1448 1447 1447 1446 1446 1446 1445 1445 1444 1444 1444 1443 1442 1442 1442 1442 1442 1442 1442 1442 1442 1443 1443 1443 1443 1443 1444 1445 1446 1446 1446 1445
1445 1445 1445 1446 1446 1446 1446 1445 1445 1445 1445 1445 1445 1444 1444 1443 1443 1443 1442 1442 1441 1441 1440 1440 1439 1439 1439 1439 1439 1439 1440 1440 1440 1440 1441 1440 1440 1441 1441 1442 1442 1443 1443 1442
1441 1441 1442 1442 1442 1442 1442 1441 1442 1441 1442 1442 1441 1441 1440 1440 1440 1440 1440 1439 1439 1438 1438 1437 1436 1436 1437 1437 1437 1437 1438 1438 1438 1438 1438 1438 1438 1438 1439 1439 1439 1440 1440 1439
1437 1437 1438 1438 1438 1438 1438 1438 1438 1438 1438 1438 1438 1437 1437 1437 1438 1438 1437 1437 1437 1436 1435 1435 1434 1434 1435 1435 1435 1436 1436 1437 1436 1436 1435 1436 1436 1436 1436 1437 1437 1437 1437 1437
1434 1434 1434 1434 1434 1434 1434 1434 1434 1434 1434 1434 1434 1434 1435 1435 1435 1435 1435 1435 1435 1434 1433 1433 1433 1433 1433 1433 1434 1434 1435 1435 1434 1434 1434 1434 1434 1434 1434 1434 1434 1434 1434 1434
1431 1431 1431 1431 1431 1431 1431 1431 1431 1431 1431 1431 1431 1432 1432 1433 1433 1433 1433 1434 1433 1433 1432 1432 1432 1431 1431 1432 1432 1432 1432 1432 1433 1433 1432 1432 1432 1432 1432 1432 1432 1432 1431 1431
1429 1429 1428 1428 1428 1429 1429 1429 1429 1429 1429 1429 1430 1431 1431 1431 1432 1432 1432 1432 1432 1431 1431 1431 1430 1430 1430 1430 1430 1430 1430 1431 1431 1431 1430 1430 1430 1430 1430 1430 1429 1429 1429 1429
1428 1427 1427 1427 1427 1427 1427 1427 1427 1427 1428 1428 1429 1430 1430 1430 1431 1431 1431 1431 1430 1430 1430 1430 1429 1429 1429 1429 1429 1428 1428 1429 1429 1429 1429 1429 1428 1428 1428 1427 1427 1426 1426 1426
1426 1426 1426 1426 1426 1426 1427 1426 1426 1426 1427 1428 1428 1429 1429 1429 1430 1430 1430 1430 1430 1429 1430 1429 1429 1428 1428 1428 1427 1427 1427 1427 1427 1427 1427 1427 1426 1426 1426 1425 1425 1424 1424 1424
1427 1426 1426 1426 1426 1427 1427 1427 1426 1427 1427 1428 1428 1428 1429 1429 1429 1429 1429 1429 1429 1429 1429 1429 1428 1428 1427 1427 1427 1426 1426 1426 1426 1425 1425 1425 1424 1424 1423 1423 1422 1422 1422 1422